Terminal Aerodrome Forecast
Issued by NWS Anchorage, AK

Home | Current Version | Previous Version | Text Only | Print | Product List | Glossary On
Versions: 1 2 3 4 5 6 7 8 9 10 11 12 13 14 15 16 17 18 19 20
000
FTAK31 PANC 242336
TAFANC
TAF
PANC 242336Z 2500/2606 36017G25KT P6SM SKC
     FM251400 01010KT P6SM SKC
     FM252100 VRB06KT P6SM SKC=

USA.gov is the U.S. government's official web portal to all federal, state and local government web resources and services.